User: anonymous   Login
Location: Street
(51.1247°N, 2.7429°W)
Time: 18:54:33
(UTC+00:00)
Language:

X-37B - Orbit

View from above orbital plane
View from above orbital plane
View from above satellite
View from above satellite

Ground track
Ground track

The orbit data is extracted from the following two-line orbital elements,

1 45606U 20029A   21324.43017383 0.00000000  00000-0  00000-0 0    08
2 45606  45.0380  35.3436 0008086  74.1320 285.8676 15.78189697    09
Epoch (UTC): 20 November 2021 10:19:27
Eccentricity: 0.0008086
inclination: 45.0380°
perigee height: 330 km
apogee height: 341 km
right ascension of ascending node: 35.3436°
argument of perigee: 74.1320°
revolutions per day: 15.78189697
mean anomaly at epoch: 285.8676°
orbit number at epoch: 0

The dashed part of the orbit path shows where the satellite is in the earth's shadow,  

DLR